Location: Observatory
(49.4490°N, 2.6360°W)
Time: 14:06:18
(UTC+01:00)

CAS-4A - Pass Details

Date: 05 May 2025
Orbit: 371 x 397 km, 43.0° (Epoch: 15 May)

Event Time Altitude Azimuth Distance (km) Brightness Sun altitude
Exits shadow 04:53:30 10° 242° (WSW) 1,370 ? -7.5°
Maximum altitude 04:55:46 19° 194° (SSW) 969 ? -7.2°
Drops below altitude 10° 04:58:05 10° 146° (SE) 1,387 ? -6.9°
Sets 05:00:30 0° 128° (SE) 2,245 ? -6.6°
